星链-31795 (STARLINK-31795 )

导读

STARLINK-31795是美国太空探索技术公司 SpaceX 星链互联网卫星星座中的一颗卫星,于2024年5月3日发射升空。星链计划旨在通过近地轨道卫星群,为全球提供高速互联网接入服务,覆盖偏远地区并补充地面网络不足,这颗卫星加入星座后,进一步扩充了星链网络的服务容量与覆盖能力。

基本信息
目录编号:
59645
目录名称:
STARLINK-31795
国际标识:
2024-082Q
轨道中心:
EARTH
卫星名称:
星链-31795
卫星全名:
星链-31795 (STARLINK-31795 )
卫星状态:
在轨 (已飞行854 天)
发射日期:
2024-05-03 UTC
国别 :
美国 (US)
星等 :
--
轨道信息
数据来源 国际轨道数据 AOE轨道数据
星历时间 2026-09-04T10:04:24+0800
17小时前
查看轨道信息
2026-09-04T00:00:00+0800
1天前
查看轨道信息
半长轴 6861.184km 6861.174km
偏心率 0.0001292 0.0001615
轨道倾角 43.001° 43.002°
近地点辐角 262.960° 239.393°
升交点赤经 153.749° 156.123°
平近点角 97.111° 329.812°
近地点 482.16km 481.928km
远地点 483.934km 484.146km
周期 94.267分钟 94.266分钟
每日圈数 15.27581 15.275843
详细信息
固有亮度:
5
最大亮度:
1.5
卫星平台:
Starlink v2.0 mini
覆盖范围:
全球
运营商:
太空探索技术公司
运营商所在国:
美国
制造商(研发单位):
太空探索技术公司
制造商所在国:
美国
使用方式:
暂无
卫星简介
星链(Starlink)计划是由太空探索技术公司(SpaceX)提出的一个巨型低轨卫星互联网星座项目,计划在2019年至2024年间在太空搭建由约1.2万颗卫星组成的“星链”网络,其中1584颗将部署在地球上空550千米处的近地轨道,并从2020年开始工作。该卫星仍在工作。
2D轨道图
3D轨道图
轨道高度分析图
轨道倾角分析图
轨道综合分析图
查看轨道综合分析图
交会数据列表
事件ID 空间交会对象 最接近时刻(TCA) 交会距离 交会风险概率(CRP) 交会风险指数(CRI) 操作
CDM_260906-090505-964506-646521
2026-09-06T
09:05:58+0000
0.474 km
远距离
1.82726E-4 高风险 0.8
CDM_260906-104005-964506-646521
2026-09-06T
10:40:07+0000
2.054 km
极远距离
2.084565E-6 低风险 0.41
CDM_260907-050505-305805-964521
2026-09-07T
05:05:19+0000
2.292 km
极远距离
1.645937E-6 低风险 0.39